EW5212 Weather Reports


time (UTC)temp
C
wind
direction
speed
KPH
gust
KPH
rain 1hr
cm
rain 24hr
cm
rain mn
cm
humidity
%
barometer
mb
20260505002017 22 0.0 0.0 0.00 0.00 0.00 47 1012.5
20260505001017 22 0.0 4.8 0.00 0.00 0.00 46 1012.3
20260505000037 22 293 1.6 6.4 0.00 0.00 0.00 45 1012.6
20260504235057 22 0.0 3.2 0.00 0.00 0.00 44 1012.6
20260504234017 23 0.0 3.2 0.00 0.00 0.00 43 1012.5
20260504233015 23 270 1.6 4.8 0.00 0.00 0.00 42 1012.5
20260504232017 23 293 1.6 8.0 0.00 0.00 0.00 41 1012.4
20260504231017 23 270 1.6 6.4 0.00 0.00 0.00 40 1012.2
20260504230017 24 270 1.6 8.0 0.00 0.00 0.00 39 1012.1
20260504225017 25 90 1.6 8.0 0.00 0.00 0.00 39 1012.2
20260504224037 25 293 3.2 11.3 0.00 0.00 0.00 38 1012.5
20260504223016 25 315 3.2 11.3 0.00 0.00 0.00 38 1012.5
20260504222017 25 270 3.2 16.1 0.00 0.00 0.00 37 1012.4
20260504221017 26 293 3.2 8.0 0.00 0.00 0.00 37 1012.3
20260504220017 26 293 4.8 16.1 0.00 0.00 0.00 36 1012.3
20260504215016 26 293 3.2 12.9 0.00 0.00 0.00 36 1012.3
20260504214017 26 270 3.2 12.9 0.00 0.00 0.00 36 1012.2
20260504213018 26 293 1.6 6.4 0.00 0.00 0.00 36 1012.2
20260504212016 26 45 3.2 8.0 0.00 0.00 0.00 36 1012.3
20260504211036 26 270 4.8 12.9 0.00 0.00 0.00 35 1012.3
20260504210017 26 315 3.2 12.9 0.00 0.00 0.00 36 1012.2
20260504205017 26 270 3.2 6.4 0.00 0.00 0.00 36 1012.2
20260504204037 26 270 4.8 17.7 0.00 0.00 0.00 36 1012.3
20260504203017 26 338 1.6 6.4 0.00 0.00 0.00 35 1012.4
20260504202017 26 293 3.2 8.0 0.00 0.00 0.00 36 1012.5
20260504201017 26 293 4.8 12.9 0.00 0.00 0.00 37 1012.7
20260504200037 25 293 4.8 17.7 0.00 0.00 0.00 37 1012.6
20260504195017 26 293 4.8 12.9 0.00 0.00 0.00 37 1012.7
20260504194017 26 270 3.2 8.0 0.00 0.00 0.00 37 1013.0
20260504193017 25 293 3.2 11.3 0.00 0.00 0.00 36 1013.2
20260504192017 25 293 3.2 9.7 0.00 0.00 0.00 37 1013.5
20260504191016 25 293 4.8 11.3 0.00 0.00 0.00 37 1013.6
20260504190017 25 90 3.2 11.3 0.00 0.00 0.00 36 1013.6
20260504185017 25 315 3.2 17.7 0.00 0.00 0.00 37 1013.9
20260504184016 24 293 4.8 14.5 0.00 0.00 0.00 37 1014.0
20260504183017 23 293 3.2 9.7 0.00 0.00 0.00 35 1014.0
20260504182016 23 270 4.8 11.3 0.00 0.00 0.00 36 1014.1
20260504181017 24 293 3.2 9.7 0.00 0.00 0.00 37 1014.1
20260504180017 23 293 3.2 9.7 0.00 0.00 0.00 38 1014.2
20260504175017 23 293 4.8 12.9 0.00 0.00 0.00 36 1014.3
20260504174016 23 270 3.2 9.7 0.00 0.00 0.00 35 1014.4
20260504173016 24 270 3.2 8.0 0.00 0.00 0.00 34 1014.5
20260504172016 25 270 3.2 11.3 0.00 0.00 0.00 35 1014.5
20260504171016 24 90 3.2 9.7 0.00 0.00 0.00 36 1014.6
20260504151016 22 68 3.2 6.4 0.00 0.00 0.00 39 1016.0
20260504141016 20 270 1.6 4.8 0.00 0.00 0.00 48 1016.2
20260504081016 7 0.0 0.0 0.00 0.00 0.00 87 1017.2
20260504050016 5 0.0 0.0 0.00 0.00 0.00 87 1017.2
20260504045016 5 0.0 0.0 0.00 0.00 0.00 87 1017.2
20260504044015 5 0.0 0.0 0.00 0.00 0.00 87 1017.2
20260504043016 5 0.0 0.0 0.00 0.00 0.00 86 1017.0
20260504042015 5 0.0 0.0 0.00 0.00 0.00 86 1017.1
20260504041015 5 0.0 0.0 0.00 0.00 0.00 86 1017.1
20260504040036 5 0.0 0.0 0.00 0.00 0.00 86 1016.9
20260504035035 5 0.0 0.0 0.00 0.00 0.00 86 1016.8
20260504034015 4 0.0 0.0 0.00 0.00 0.00 85 1016.8
20260504033015 4 0.0 0.0 0.00 0.00 0.00 85 1016.9
20260504032015 4 0.0 0.0 0.00 0.00 0.00 84 1016.9
20260504031015 5 0.0 0.0 0.00 0.00 0.00 84 1016.9
20260504030015 5 0.0 0.0 0.00 0.00 0.00 83 1016.8
20260504025015 5 0.0 0.0 0.00 0.00 0.00 82 1016.8
20260504024015 5 0.0 0.0 0.00 0.00 0.00 82 1016.9
20260504023015 5 0.0 0.0 0.00 0.00 0.00 81 1016.9
20260504022015 6 0.0 0.0 0.00 0.00 0.00 81 1016.9
20260504021015 6 0.0 0.0 0.00 0.00 0.00 79 1016.7
20260504020035 6 0.0 0.0 0.00 0.00 0.00 78 1016.6
20260504015035 7 0.0 0.0 0.00 0.00 0.00 78 1016.6
20260504014015 7 0.0 0.0 0.00 0.00 0.00 76 1016.6
20260504013015 7 0.0 0.0 0.00 0.00 0.00 75 1016.6
20260504012015 8 0.0 0.0 0.00 0.00 0.00 74 1016.4
20260504011015 8 0.0 0.0 0.00 0.00 0.00 72 1016.3
20260504010015 9 0.0 0.0 0.00 0.00 0.00 71 1016.5
20260504005015 10 0.0 0.0 0.00 0.00 0.00 68 1016.4
20260504004015 10 0.0 0.0 0.00 0.00 0.00 65 1016.3
20260504003015 11 0.0 0.0 0.00 0.00 0.00 62 1016.2